Погода в Эйдхафуши

Мальдивы     5°06′10″N   73°04′15″E
темп.,
°C
ветер,
м/с
пор.,
м/с
влажн.,
%
обл.,
%
осадки,
мм/ч
давл.,
гПа
погр.,
м
10 августа, ср
ср1023:00+27з678423 1.8 1009514
02:00+27зсз5681100 1.4 1008518
05:00+27з348010 1.8 1008502
08:00+27з448074 0.1 1009530
11:00+27з3479100 0.1 1009576
14:00+27з3479100 0.0 1007586
17:00+28зсз4578100 0.0 1007647
20:00+28зсз358359 0.0 1008699
11 августа, чт
чт1123:00+27зсз458125 0.0 1009624
02:00+27зсз55849 1.8 1008444
05:00+27зсз458125 2.9 1008368
08:00+27з4579100 0.0 1010568
11:00+28з3376100 0.0 1009540
14:00+28з337519 0.0 1008579
17:00+28зюз227436 0.0 1008497
20:00+28з23785 0.1 1009415
12 августа, пт
пт1223:00+27зюз22785 0.6 1010236
02:00+27юз227797 0.0 1009384
05:00+27зюз227999 0.8 1010224
08:00+27зюз337728 0.1 1011438
11:00+27зюз23756 0.1 1010483
14:00+27зсз237318 0.0 1008609
17:00+28зсз227159 0.0 1008625
20:00+28сз227614 0.0 1010556
13 августа, сб
сб1323:00+27ссз1175100 0.0 1011476
02:00+27зсз117780 0.1 1009343
05:00+26зсз228052 0.3 1009255
08:00+27зюз227878 0.4 1011373
11:00+27з1278100 0.6 1011337
14:00+27з3376100 0.0 1008568
17:00+27з227499 0.0 1008681
20:00+27з1275100 0.0 1010603
14 августа, вс
вс1423:00+27сз2276100 0.0 1010486
02:00+27сз237992 0.2 1008476
05:00+27зсз238048 1.6 1009431
08:00+27зсз11787 0.1 1011422
11:00+27ссз117780 0.1 1011446
14:00+27сз2376100 0.0 1009583
17:00+27ссз237559 0.0 1009710
20:00+27с237790 0.0 1010641